Back to catalog

STARLINK-35606

AliveCommunicationsVLEO
NORAD 66171·PAYLOAD·🇺🇸 United States

Launched Oct 25, 2025 from Cape Canaveral Space Force Station

Loading…

Next Passes (next 24 hours)

TLE

FreshSource: CelesTrak SupGP

Epoch: Sep 14, 2026, 15:50 UTC

1 66171C 25240AB  26257.66020833 -.00032929  00000+0 -97316-3 0  2576
2 66171  53.1572 260.8354 0001243  81.7292 153.1140 15.34398457    18

Track STARLINK-35606 in real time with AllMySat

Download on the App Store